Location: Bidart
(43.4376°N, 1.5913°W)
Time: 05:41:55
(UTC+00:00)

Cosmos 2369 - Pass Details

Date: 19 May 2025
Orbit: 840 x 853 km, 71.0° (Epoch: 18 June)

Event Time Altitude Azimuth Distance (km) Brightness Sun altitude
Rises 23:15:21 0° 329° (NNW) 3,410 8.0 -25.6°
Reaches altitude 10° 23:17:54 10° 323° (NW) 2,469 6.9 -25.7°
Maximum altitude 23:23:12 43° 253° (WSW) 1,172 4.3 -25.9°
Enters shadow 23:23:33 42° 243° (WSW) 1,181 4.3 -25.9°
